Regional Weather Roundup
Issued by NWS

Home | Current Version | Previous Version | Text Only | Print | Product List | Glossary Off
Versions: 1 2 3 4 5 6 7 8 9 10 11 12 13 14 15 16 17 18 19 20 21 22 23 24 25 26 27 28 29 30 31 32 33 34 35 36 37 38 39 40 41 42 43 44 45 46 47 48 49 50

000
ASUS43 KIND 161109
RWRIN

WEATHER ROUNDUP FOR INDIANA
NATIONAL WEATHER SERVICE INDIANAPOLIS IN
700 AM EDT WED APR 16 2014

NOTE: "FAIR" INDICATES FEW OR NO CLOUDS BELOW 12,000 FEET WITH NO
SIGNIFICANT WEATHER AND/OR OBSTRUCTIONS TO VISIBILITY.

* - STATION DOES NOT REPORT WEATHER SUCH AS PRECIPITATION OR FOG.

+ - STATION NOT QUALITY CONTROLLED BY THE NATIONAL WEATHER SERVICE.
    USE DATA WITH CAUTION...ESPECIALLY DEWPOINT AND RELATIVE
    HUMIDITY OBSERVATIONS.

INZ001>003-010>013-019-020-161200-
NORTHWEST INDIANA

CITY           SKY/WX    TMP DP  RH WIND       PRES   REMARKS
GARY /AIRPORT/ CLEAR     32  19  59 SE6       30.30R WCI  26
LA PORTE +     MOCLDY    26  16  66 S5        30.31R WCI  20
MICHIGAN CITY+ CLEAR     28  16  59 S5        30.31R WCI  23
MONTICELLO +   CLEAR     29  21  73 SE6       30.31R WCI  23
RENSSELAER +   CLEAR     28  23  80 CALM      30.31R
VALPARAISO     CLEAR     26  18  71 SE8       30.30R WCI  18

$$

LMZ046-743>745-161200-
SOUTHERN LAKE MICHIGAN

STATION/POSITION TIME  TEMP WIND        PRES
                       AIR  DIR/SP/G
                 (UTC) (F)  (DEG/KT/KT) (MB)
MICHIGAN CITY    1100   30  140/ 11/ 15   N/A

$$

INZ004-005-014>016-021>024-161200-
NORTH CENTRAL INDIANA

CITY           SKY/WX    TMP DP  RH WIND       PRES   REMARKS
ELKHART        CLEAR     25  14  63 SE3       30.33
GOSHEN         CLEAR     25  16  68 SE8       30.33R WCI  16
LOGANSPORT +   CLEAR     28  19  69 SE8       30.33S WCI  20
PERU/GRISSOM   CLEAR     26  19  75 SE8       30.32R WCI  18
ROCHESTER +    CLEAR     32  19  59 S8        30.33R WCI  25
SOUTH BEND     CLEAR     28  14  55 S8        30.32R WCI  20
WARSAW +       CLEAR     27  14  59 S3        30.33R

$$

INZ006>009-017-018-025>027-161200-
NORTHEAST INDIANA

CITY           SKY/WX    TMP DP  RH WIND       PRES   REMARKS
ANGOLA *+      CLEAR     21  16  79 CALM      30.34R
AUBURN +       CLEAR     23  18  80 CALM      30.36R
FORT WAYNE     PTCLDY    24  15  68 SE7       30.36R WCI  16

$$

INZ028-029-035-036-043>045-051>053-161200-
WEST CENTRAL INDIANA

CITY           SKY/WX    TMP DP  RH WIND       PRES   REMARKS
GREENCASTLE +  PTCLDY    28  21  74 SE6       30.33R WCI  22
LAFAYETTE      CLEAR     28  20  71 SE7       30.32R WCI  21
TERRE HAUTE    MOCLDY    30  21  69 SE8       30.32R WCI  22

$$

INZ030>032-037>040-046>048-054>057-064-065-161200-
CENTRAL INDIANA

CITY           SKY/WX    TMP DP  RH WIND       PRES   REMARKS
CP ATTERBURY + CLEAR     27  23  86 SE3       30.36S
COLUMBUS       CLEAR     27  21  80 CALM      30.36
INDIANAPOLIS   PTCLDY    27  18  69 SE9       30.33R WCI  18
-EAGLE CREEK   CLEAR     28  17  63 SE5       30.33R WCI  23
KOKOMO *+      CLEAR     27  18  69 S8        30.33R WCI  18
MARION +       CLEAR     26  17  68 SE8       30.35R WCI  17
MT COMFORT *+  CLEAR     27  19  74 SE7       30.34S WCI  19
SHELBYVILLE    CLEAR     30  18  60 SE9       30.35R WCI  22
ZIONSVILLE +   CLEAR     28  18  66 SE6       30.34R WCI  21

$$

INZ033-034-041-042-049-050-058-059-161200-
EAST CENTRAL INDIANA

CITY           SKY/WX    TMP DP  RH WIND       PRES   REMARKS
MUNCIE         CLEAR     27  14  58 S8        30.35R WCI  19

$$

INZ060-061-067>069-081>083-085>088-161200-
SOUTHWEST INDIANA

CITY           SKY/WX    TMP DP  RH WIND       PRES   REMARKS
EVANSVILLE     PTCLDY    34  23  64 VRB3      30.32S
HUNTINGBURG *+ PTCLDY    30  21  69 SE10      30.34R WCI  21
WASHINGTON +   MOCLDY    31  26  81 SE5       30.33R WCI  27

$$

INZ062-063-066-070>080-084-089>092-161200-
SOUTH CENTRAL AND SOUTHEAST INDIANA

CITY           SKY/WX    TMP DP  RH WIND       PRES   REMARKS
BEDFORD +      PTCLDY    28  19  69 SE6       30.34  WCI  22
BLOOMINGTON    PTCLDY    29  20  69 S5        30.33R WCI  24

$$




USA.gov is the U.S. government's official web portal to all federal, state and local government web resources and services.